sat.trackr.live / text

‹ back to catalog

STARLINK-3907

NORAD 52501 · 2022-049BC

PAYLOAD ACTIVE UNKNOWN

§ Identity

Operator
Country
US
Launch date
2022-05-06
Launch site
AFETR
Launch vehicle
Mass (kg)
RCS (m²)

Purposes: comms

External: N2YO · Heavens-Above · Gunter

§ Orbital elements

Epoch: 2026-09-20T04:00:03.000096Z

Period
93.85 min
Inclination
53.1599°
Eccentricity
0.0001386
Mean motion
15.34400443 rev/d
Perigee alt
461.8 km
Apogee alt
463.7 km
Semi-major
6,840.8 km
B*
-6.2300e-4
RAAN
245.6306°
Arg perigee
88.4732°
Mean anomaly
304.4655°
Rev number
586

§ Raw data

STARLINK-39071 52501U 22049BC  26263.16670139 -.00021367  00000+0 -62300-3 0  99962 52501  53.1599 245.6306 0001386  88.4732 304.4655 15.34400443  5867

JSON: /api/v1/satellites/52501 · /tle

For live sub-satellite position, see the globe view (requires WebGL).

§ Visibility from observer

Set your observer location to see the next 7 days of passes ≥ 10°. The values pass through the URL so the page stays shareable.

No JS? Fill the form by hand. The geolocation button needs JavaScript.